Regional Weather Roundup
Issued by NWS Kansas City/Pleasant Hill, MO

Home | Current Version | Previous Version | Text Only | Print | Product List | Glossary On
Versions: 1 2 3 4 5 6 7 8 9 10 11 12 13 14 15 16 17 18 19 20 21 22 23 24 25 26 27 28 29 30 31 32 33 34 35 36 37 38 39 40 41 42 43 44 45 46 47 48 49 50
000
ASUS43 KEAX 261810
RWREAX

WEATHER ROUNDUP FOR EASTERN KANSAS AND NORTHWEST MISSOURI
NATIONAL WEATHER SERVICE KANSAS CITY/PLEASANT HILL MO
100 PM CDT MON JUN 26 2017

KSZ040-057-103>105-MOZ028-029-037-043-261900-
...KANSAS CITY METROPOLITAN AREA...

CITY           SKY/WX    TMP DP  RH WIND       PRES   REMARKS
K.C. INTL      CLOUDY    60  55  83 E10       30.23F
6HR MIN TEMP:  53; 6HR MAX TEMP:  62; 6HR PCP:  0.41;

K.C. DOWNTOWN  CLOUDY    63  58  83 E10G17    30.21F
6HR MIN TEMP:  58; 6HR MAX TEMP:  69; 6HR PCP:  0.05;

LEES SUMMIT    CLOUDY    63  58  83 NE13      30.23F
6HR MIN TEMP:  56; 6HR MAX TEMP:  71; 6HR PCP:  0.12;

OLATHE - IXD   PTSUNNY   69  52  54 E13       30.22F
6HR MIN TEMP:  54; 6HR MAX TEMP:  71;

OLATHE - OJC   PTSUNNY   66  54  65 E10       30.21F
6HR MIN TEMP:  53; 6HR MAX TEMP:  68;

LAWRENCE       CLOUDY    67  55  65 NE12      30.22F

$$

MOZ001>008-011>017-020>025-030>033-038>040-044>046-053-054-261900-
...NORTHERN AND CENTRAL MISSOURI...

CITY           SKY/WX    TMP DP  RH WIND       PRES   REMARKS
ST. JOSEPH     LGT RAIN  58  57  97 S15       30.20F FOG
6HR MIN TEMP:  56; 6HR MAX TEMP:  60; 6HR PCP:  0.61;

MOSBY          CLOUDY    61  55  82 NE8       30.25R
WARRENSBURG    CLOUDY    63  55  77 NE7       30.22F
WHITEMAN AFB   LGT RAIN  63  63  99 NE12      30.22F
6HR MIN TEMP:  55; 6HR MAX TEMP:  73; 6HR PCP:  0.12;

CLINTON        CLOUDY    66  55  68 NE10G16   30.22F
SEDALIA        LGT RAIN  64  58  80 N10       30.27R
6HR MIN TEMP:  57; 6HR MAX TEMP:  77; 6HR PCP:  0.04;

WARSAW         NOT AVBL
CHILLICOTHE      N/A     61  57  87 SE5       30.20F
6HR MIN TEMP:  54; 6HR MAX TEMP:  61; 6HR PCP:  0.13;

KIRKSVILLE     CLOUDY    64  55  72 S9        30.21F
6HR MIN TEMP:  55; 6HR MAX TEMP:  64; 6HR PCP:  0.01;


$$

MOZ041-047>049-056>058-063>065-088>090-097-261900-
...EASTERN AND SOUTHERN MISSOURI...

CITY           SKY/WX    TMP DP  RH WIND       PRES   REMARKS
ST. LOUIS INTL PTSUNNY   79  45  29 N12       30.20F
6HR MIN TEMP:  64; 6HR MAX TEMP:  81;

SPIRIT OF STL  PTSUNNY   77  47  34 VRB6      30.19F
COLUMBIA       CLOUDY    71  51  49 N10       30.22F
JEFFERSON CITY PTSUNNY   76  46  34 N9        30.21S
ROLLA          SUNNY     78  50  37 VRB6      30.18F
OSAGE BEACH    CLOUDY    75  55  50 N3        30.18F
SPRINGFIELD    CLOUDY    72  61  68 S6        30.18F
BRANSON        CLOUDY    77  57  50 SW6       30.22F
JOPLIN         CLOUDY    81  65  58 S8        30.17F
WEST PLAINS    MOSUNNY   78  59  51 VRB7      30.21F

$$

IAZ060-094-KSZ022-034>040-054-083-096-NEZ052-066-093-261900-
...KANSAS...SOUTHEAST NEBRASKA AND IOWA...

CITY           SKY/WX    TMP DP  RH WIND       PRES   REMARKS
TOPEKA         PTSUNNY   70  56  61 E12       30.21S
6HR MIN TEMP:  59; 6HR MAX TEMP:  71;

MANHATTAN      PTSUNNY   77  62  59 E13       30.16F
EMPORIA        MOSUNNY   80  60  50 VRB5      30.15F
CHANUTE          N/A    N/A N/A N/A MISG      30.16F
WICHITA        MOSUNNY   83  61  47 SW13G21   30.14F
OMAHA          MOSUNNY   71  58  63 E5        30.16F
LINCOLN        LGT RAIN  69  60  73 S6        30.17F
FALLS CITY     CLOUDY    63  59  87 S10       30.17F
LAMONI         PTSUNNY   67  57  70 SW15      30.18F
DES MOINES     MOSUNNY   68  55  63 W7        30.18F

$$




USA.gov is the U.S. government's official web portal to all federal, state and local government web resources and services.